• In Belarus
  • List of Countries
  • For 7 days
  • Water Temperature
  • Satellite Maps
  • Weather Map
  • Weather Widgets
  • user-avatar
    Login

    Hourly Weather Minsk

    Today, 30 March, Thursday

    Time Temperature Precipitation Wind Pressure Humidity
    00:00 -1°C° 0 mm 3 mps 740 mmHg 82%
    01:00 -2°C° 0 mm 3 mps 741 mmHg 82%
    02:00 -4°C° 0 mm 3 mps 742 mmHg 81%
    03:00 -4°C° 0 mm 3 mps 743 mmHg 79%
    04:00 -3°C° 0 mm 2 mps 744 mmHg 77%
    05:00 -3°C° 0 mm 2 mps 745 mmHg 75%
    06:00 -3°C° 0 mm 2 mps 745 mmHg 70%
    07:00 -2°C° 0 mm 2 mps 746 mmHg 64%
    08:00 -1°C° 0 mm 2 mps 747 mmHg 56%
    09:00 +2°C° 0 mm 2 mps 748 mmHg 50%
    10:00 +3°C° 0 mm 2 mps 748 mmHg 43%
    11:00 +3°C° 0 mm 3 mps 749 mmHg 37%
    12:00 +3°C° 0 mm 3 mps 749 mmHg 37%
    13:00 +4°C° 0 mm 3 mps 749 mmHg 37%
    14:00 +4°C° 0 mm 3 mps 749 mmHg 38%
    15:00 +5°C° 0 mm 2 mps 749 mmHg 42%
    16:00 +5°C° 0 mm 2 mps 749 mmHg 47%
    17:00 +5°C° 0 mm 2 mps 749 mmHg 51%
    18:00 +3°C° 0 mm 2 mps 749 mmHg 58%
    19:00 +2°C° 0 mm 1 mps 750 mmHg 65%
    20:00 +1°C° 0 mm 1 mps 750 mmHg 72%
    21:00 +1°C° 0 mm 1 mps 750 mmHg 72%
    22:00 -1°C° 0 mm 2 mps 750 mmHg 72%
    23:00 -1°C° 0 mm 2 mps 750 mmHg 73%

    Tomorrow, 31 March, Friday

    Time Temperature Precipitation Wind Pressure Humidity
    00:00 -1°C° 0 mm 2 mps 749 mmHg 72%
    01:00 -1°C° 0 mm 3 mps 749 mmHg 71%
    02:00 0°C° 0 mm 3 mps 749 mmHg 70%
    03:00 -1°C° 0.3 mm 4 mps 748 mmHg 72%
    04:00 -1°C° 0.3 mm 4 mps 747 mmHg 74%
    05:00 -1°C° 0.3 mm 5 mps 746 mmHg 76%
    06:00 0°C° 1 mm 5 mps 745 mmHg 81%
    07:00 0°C° 1 mm 5 mps 744 mmHg 87%
    08:00 +1°C° 1 mm 6 mps 743 mmHg 92%
    09:00 +2°C° 0.6 mm 6 mps 743 mmHg 94%
    10:00 +3°C° 0.6 mm 6 mps 743 mmHg 95%
    11:00 +5°C° 0.6 mm 5 mps 742 mmHg 96%
    12:00 +6°C° 0.3 mm 5 mps 742 mmHg 96%
    13:00 +6°C° 0.3 mm 5 mps 742 mmHg 97%
    14:00 +7°C° 0.3 mm 4 mps 742 mmHg 97%
    15:00 +7°C° 0.3 mm 4 mps 742 mmHg 97%
    16:00 +7°C° 0.3 mm 4 mps 742 mmHg 98%
    17:00 +8°C° 0.3 mm 3 mps 742 mmHg 98%
    18:00 +8°C° 0.2 mm 3 mps 742 mmHg 98%
    19:00 +7°C° 0.2 mm 3 mps 743 mmHg 98%
    20:00 +7°C° 0.2 mm 3 mps 743 mmHg 98%
    21:00 +7°C° 0 mm 2 mps 743 mmHg 98%
    22:00 +6°C° 0 mm 2 mps 743 mmHg 98%
    23:00 +6°C° 0 mm 2 mps 744 mmHg 98%

    Day after tomorrow, 1 April, Saturday

    Time Temperature Precipitation Wind Pressure Humidity
    00:00 +6°C° 0 mm 2 mps 744 mmHg 98%
    01:00 +6°C° 0 mm 1 mps 744 mmHg 98%
    02:00 +6°C° 0 mm 1 mps 744 mmHg 98%
    03:00 +6°C° 0 mm 1 mps 744 mmHg 98%
    04:00 +5°C° 0 mm 1 mps 744 mmHg 98%
    05:00 +4°C° 0 mm 0 mps 744 mmHg 99%
    06:00 +6°C° 0 mm 1 mps 744 mmHg 98%
    07:00 +7°C° 0 mm 1 mps 744 mmHg 97%
    08:00 +7°C° 0 mm 2 mps 745 mmHg 96%
    09:00 +8°C° 0 mm 2 mps 745 mmHg 94%
    10:00 +9°C° 0 mm 2 mps 745 mmHg 92%
    11:00 +10°C° 0 mm 2 mps 745 mmHg 91%
    12:00 +11°C° 0 mm 3 mps 745 mmHg 89%
    13:00 +12°C° 0 mm 3 mps 744 mmHg 88%
    14:00 +12°C° 0 mm 3 mps 744 mmHg 87%
    15:00 +12°C° 0.1 mm 3 mps 744 mmHg 89%
    16:00 +12°C° 0.1 mm 3 mps 743 mmHg 90%
    17:00 +13°C° 0.1 mm 3 mps 743 mmHg 92%
    18:00 +12°C° 0 mm 3 mps 743 mmHg 94%
    19:00 +11°C° 0 mm 3 mps 743 mmHg 95%
    20:00 +10°C° 0 mm 3 mps 743 mmHg 97%
    21:00 +10°C° 0 mm 3 mps 743 mmHg 97%
    22:00 +9°C° 0 mm 3 mps 743 mmHg 97%
    23:00 +9°C° 0 mm 3 mps 743 mmHg 97%

    2 April, Sunday

    Time Temperature Precipitation Wind Pressure Humidity
    00:00 +9°C° 0 mm 3 mps 743 mmHg 97%
    01:00 +8°C° 0 mm 3 mps 743 mmHg 96%
    02:00 +8°C° 0 mm 3 mps 743 mmHg 96%
    03:00 +8°C° 0 mm 3 mps 743 mmHg 96%
    04:00 +7°C° 0 mm 2 mps 743 mmHg 97%
    05:00 +7°C° 0 mm 2 mps 743 mmHg 97%
    06:00 +8°C° 0 mm 2 mps 743 mmHg 93%
    07:00 +9°C° 0 mm 2 mps 743 mmHg 90%
    08:00 +10°C° 0 mm 3 mps 743 mmHg 87%
    09:00 +11°C° 0 mm 3 mps 743 mmHg 83%
    10:00 +13°C° 0 mm 3 mps 743 mmHg 79%
    11:00 +14°C° 0 mm 3 mps 743 mmHg 75%
    12:00 +16°C° 0 mm 3 mps 743 mmHg 72%
    13:00 +17°C° 0 mm 3 mps 743 mmHg 69%
    14:00 +17°C° 0 mm 3 mps 742 mmHg 65%
    15:00 +17°C° 0 mm 3 mps 742 mmHg 69%
    16:00 +17°C° 0 mm 2 mps 742 mmHg 73%
    17:00 +16°C° 0 mm 2 mps 742 mmHg 76%
    18:00 +15°C° 0.1 mm 2 mps 742 mmHg 82%
    19:00 +13°C° 0.1 mm 2 mps 742 mmHg 87%
    20:00 +10°C° 0.1 mm 2 mps 741 mmHg 93%
    21:00 +10°C° 0.1 mm 2 mps 741 mmHg 94%
    22:00 +9°C° 0.1 mm 2 mps 741 mmHg 94%
    23:00 +9°C° 0.1 mm 2 mps 741 mmHg 95%

    3 April, Monday

    Time Temperature Precipitation Wind Pressure Humidity
    00:00 +9°C° 0.1 mm 2 mps 741 mmHg 95%
    01:00 +9°C° 0.1 mm 2 mps 741 mmHg 95%
    02:00 +9°C° 0.1 mm 2 mps 741 mmHg 95%
    03:00 +8°C° 0.2 mm 2 mps 741 mmHg 96%
    04:00 +9°C° 0.2 mm 1 mps 740 mmHg 96%
    05:00 +9°C° 0.2 mm 1 mps 740 mmHg 96%
    06:00 +10°C° 0.2 mm 1 mps 741 mmHg 95%
    07:00 +10°C° 0.2 mm 1 mps 741 mmHg 93%
    08:00 +11°C° 0.2 mm 1 mps 741 mmHg 92%
    09:00 +12°C° 0 mm 1 mps 741 mmHg 89%
    10:00 +13°C° 0 mm 2 mps 741 mmHg 86%
    11:00 +14°C° 0 mm 2 mps 742 mmHg 83%
    12:00 +12°C° 0.1 mm 3 mps 742 mmHg 84%
    13:00 +12°C° 0.1 mm 3 mps 742 mmHg 85%
    14:00 +12°C° 0.1 mm 3 mps 743 mmHg 86%
    15:00 +11°C° 0 mm 4 mps 743 mmHg 86%
    16:00 +11°C° 0 mm 4 mps 743 mmHg 87%
    17:00 +10°C° 0 mm 4 mps 744 mmHg 88%
    18:00 +10°C° 0.1 mm 4 mps 744 mmHg 89%
    19:00 +8°C° 0.1 mm 4 mps 745 mmHg 90%
    20:00 +7°C° 0.1 mm 4 mps 745 mmHg 92%
    21:00 +7°C° 0.1 mm 4 mps 746 mmHg 91%
    22:00 +7°C° 0.1 mm 4 mps 747 mmHg 91%
    23:00 +6°C° 0.1 mm 5 mps 747 mmHg 91%

    4 April, Tuesday

    Time Temperature Precipitation Wind Pressure Humidity
    00:00 +6°C° 0 mm 5 mps 748 mmHg 90%
    01:00 +5°C° 0 mm 5 mps 748 mmHg 89%
    02:00 +5°C° 0 mm 5 mps 749 mmHg 89%
    03:00 +5°C° 0 mm 5 mps 749 mmHg 88%
    04:00 +3°C° 0 mm 5 mps 749 mmHg 88%
    05:00 +4°C° 0 mm 4 mps 750 mmHg 88%
    06:00 +4°C° 0 mm 4 mps 750 mmHg 87%
    07:00 +4°C° 0 mm 4 mps 751 mmHg 86%
    08:00 +3°C° 0 mm 4 mps 751 mmHg 84%
    09:00 +4°C° 0 mm 4 mps 751 mmHg 82%
    10:00 +4°C° 0 mm 4 mps 752 mmHg 80%
    11:00 +4°C° 0 mm 4 mps 752 mmHg 78%
    12:00 +5°C° 0 mm 4 mps 752 mmHg 76%
    13:00 +5°C° 0 mm 4 mps 752 mmHg 75%
    14:00 +5°C° 0 mm 4 mps 752 mmHg 73%
    15:00 +5°C° 0 mm 3 mps 752 mmHg 74%
    16:00 +5°C° 0 mm 3 mps 752 mmHg 74%
    17:00 +5°C° 0 mm 3 mps 752 mmHg 75%
    18:00 +4°C° 0 mm 3 mps 752 mmHg 80%
    19:00 +4°C° 0 mm 2 mps 752 mmHg 84%
    20:00 +3°C° 0 mm 2 mps 752 mmHg 89%
    21:00 +3°C° 0 mm 2 mps 752 mmHg 90%
    22:00 +3°C° 0 mm 2 mps 752 mmHg 91%
    23:00 +2°C° 0 mm 2 mps 752 mmHg 92%
    Show more